Time,TemperatureF,DewpointF,PressureIn,WindDirection,WindDirectionDegrees,WindSpeedMPH,WindSpeedGustMPH,Humidity,HourlyPrecipIn,Conditions,Clouds,dailyrainin,SoftwareType,DateUTC
2013-08-02 00:05:00,66.4,66.0,29.85,NE,42,0.0,0.0,98,0.02,,,0.38,weatherlink.com 1.10,2013-08-02 04:05:00,
2013-08-02 00:20:00,66.4,66.0,29.85,NE,42,0.0,0.0,98,0.03,,,0.00,weatherlink.com 1.10,2013-08-02 04:20:00,
2013-08-02 00:35:00,66.5,66.0,29.84,NE,42,0.0,1.0,98,0.05,,,0.02,weatherlink.com 1.10,2013-08-02 04:35:00,
2013-08-02 00:50:00,66.5,66.0,29.84,NE,42,0.0,0.0,98,0.04,,,0.02,weatherlink.com 1.10,2013-08-02 04:50:00,
2013-08-02 01:05:00,66.5,66.0,29.83,NE,42,0.0,0.0,98,0.03,,,0.02,weatherlink.com 1.10,2013-08-02 05:05:00,
2013-08-02 01:20:00,66.4,66.0,29.83,NE,42,0.0,1.0,98,0.02,,,0.02,weatherlink.com 1.10,2013-08-02 05:20:00,
2013-08-02 01:35:00,66.3,66.0,29.82,NE,42,0.0,0.0,98,0.00,,,0.02,weatherlink.com 1.10,2013-08-02 05:35:00,
2013-08-02 01:50:00,66.2,66.0,29.82,NE,42,0.0,0.0,98,0.00,,,0.02,weatherlink.com 1.10,2013-08-02 05:50:00,
2013-08-02 02:05:00,66.1,66.0,29.81,NE,42,0.0,0.0,98,0.00,,,0.02,weatherlink.com 1.10,2013-08-02 06:05:00,
2013-08-02 02:21:00,66.1,66.0,29.80,NE,42,0.0,0.0,98,0.00,,,0.02,weatherlink.com 1.10,2013-08-02 06:21:00,
2013-08-02 02:36:00,66.1,66.0,29.80,NE,42,0.0,1.0,98,0.00,,,0.02,weatherlink.com 1.10,2013-08-02 06:36:00,
2013-08-02 02:51:00,66.0,66.0,29.81,NE,42,0.0,0.0,98,0.00,,,0.02,weatherlink.com 1.10,2013-08-02 06:51:00,
2013-08-02 03:06:00,65.9,65.0,29.80,NE,42,0.0,0.0,98,0.00,,,0.02,weatherlink.com 1.10,2013-08-02 07:06:00,
2013-08-02 03:21:00,65.9,65.0,29.81,NE,42,0.0,0.0,98,0.00,,,0.02,weatherlink.com 1.10,2013-08-02 07:21:00,
2013-08-02 03:36:00,65.9,65.0,29.81,NE,42,0.0,1.0,98,0.00,,,0.02,weatherlink.com 1.10,2013-08-02 07:36:00,
2013-08-02 03:51:00,65.9,65.0,29.80,SE,131,0.0,2.0,98,0.00,,,0.02,weatherlink.com 1.10,2013-08-02 07:51:00,
2013-08-02 04:06:00,66.0,66.0,29.81,SE,131,0.0,0.0,98,0.00,,,0.02,weatherlink.com 1.10,2013-08-02 08:06:00,
2013-08-02 04:21:00,66.0,66.0,29.80,SE,131,0.0,1.0,98,0.00,,,0.02,weatherlink.com 1.10,2013-08-02 08:21:00,
2013-08-02 04:36:00,65.8,65.0,29.81,SE,131,0.0,0.0,97,0.00,,,0.02,weatherlink.com 1.10,2013-08-02 08:36:00,
2013-08-02 04:51:00,65.6,65.0,29.82,SE,131,0.0,2.0,97,0.00,,,0.02,weatherlink.com 1.10,2013-08-02 08:51:00,
2013-08-02 05:06:00,65.4,65.0,29.83,SE,131,0.0,1.0,98,0.00,,,0.02,weatherlink.com 1.10,2013-08-02 09:06:00,
2013-08-02 05:21:00,65.2,65.0,29.83,SE,131,0.0,0.0,98,0.00,,,0.02,weatherlink.com 1.10,2013-08-02 09:21:00,
2013-08-02 05:36:00,64.8,64.0,29.83,SE,131,0.0,0.0,97,0.00,,,0.02,weatherlink.com 1.10,2013-08-02 09:36:00,
2013-08-02 05:51:00,64.4,64.0,29.84,SE,131,0.0,0.0,97,0.00,,,0.02,weatherlink.com 1.10,2013-08-02 09:51:00,
2013-08-02 06:06:00,64.1,63.0,29.84,SE,131,0.0,1.0,97,0.00,,,0.02,weatherlink.com 1.10,2013-08-02 10:06:00,
2013-08-02 06:51:00,63.6,63.0,29.85,SE,131,0.0,1.0,98,0.00,,,0.02,weatherlink.com 1.10,2013-08-02 10:51:00,
2013-08-02 07:36:00,63.8,63.0,29.87,SE,131,0.0,2.0,98,0.00,,,0.02,weatherlink.com 1.10,2013-08-02 11:36:00,
2013-08-02 08:06:00,64.5,64.0,29.87,SE,131,0.0,1.0,98,0.00,,,0.02,weatherlink.com 1.10,2013-08-02 12:06:00,
2013-08-02 09:06:00,66.4,65.0,29.87,North,351,0.0,2.0,94,0.01,,,0.03,weatherlink.com 1.10,2013-08-02 13:06:00,
2013-08-02 09:21:00,66.8,65.0,29.88,SW,217,1.0,3.0,95,0.01,,,0.03,weatherlink.com 1.10,2013-08-02 13:21:00,
2013-08-02 09:36:00,67.3,66.0,29.88,North,5,0.0,1.0,95,0.01,,,0.03,weatherlink.com 1.10,2013-08-02 13:36:00,
2013-08-02 09:51:00,67.9,66.0,29.88,SW,229,3.0,4.0,93,0.01,,,0.03,weatherlink.com 1.10,2013-08-02 13:51:00,
2013-08-02 10:06:00,68.7,65.0,29.89,SSW,207,0.0,5.0,87,0.00,,,0.03,weatherlink.com 1.10,2013-08-02 14:06:00,
2013-08-02 10:22:00,69.7,65.0,29.89,NW,317,1.0,7.0,84,0.00,,,0.03,weatherlink.com 1.10,2013-08-02 14:22:00,
2013-08-02 10:36:00,70.4,65.0,29.90,SW,215,0.0,6.0,83,0.00,,,0.03,weatherlink.com 1.10,2013-08-02 14:36:00,
2013-08-02 10:52:00,71.4,66.0,29.90,West,260,2.0,5.0,82,0.00,,,0.03,weatherlink.com 1.10,2013-08-02 14:52:00,
2013-08-02 11:06:00,72.0,64.0,29.90,SW,222,2.0,11.0,75,0.00,,,0.03,weatherlink.com 1.10,2013-08-02 15:06:00,
2013-08-02 11:22:00,72.4,65.0,29.90,WSW,237,3.0,12.0,77,0.00,,,0.03,weatherlink.com 1.10,2013-08-02 15:22:00,
2013-08-02 11:37:00,73.2,64.0,29.90,NNE,15,3.0,5.0,73,0.00,,,0.03,weatherlink.com 1.10,2013-08-02 15:37:00,
2013-08-02 11:52:00,74.1,65.0,29.90,NNW,331,1.0,5.0,72,0.00,,,0.03,weatherlink.com 1.10,2013-08-02 15:52:00,
2013-08-02 12:22:00,75.7,64.0,29.89,SSW,208,1.0,6.0,68,0.00,,,0.03,weatherlink.com 1.10,2013-08-02 16:22:00,
2013-08-02 12:37:00,76.3,66.0,29.89,NW,304,2.0,5.0,70,0.00,,,0.03,weatherlink.com 1.10,2013-08-02 16:37:00,
2013-08-02 12:52:00,76.4,66.0,29.88,North,355,5.0,8.0,70,0.00,,,0.03,weatherlink.com 1.10,2013-08-02 16:52:00,
2013-08-02 13:07:00,76.4,65.0,29.87,South,182,1.0,4.0,68,0.00,,,0.03,weatherlink.com 1.10,2013-08-02 17:07:00,
2013-08-02 13:22:00,76.6,64.0,29.87,NNW,344,3.0,9.0,66,0.00,,,0.03,weatherlink.com 1.10,2013-08-02 17:22:00,
2013-08-02 13:52:00,77.8,64.0,29.86,West,275,2.0,5.0,62,0.00,,,0.03,weatherlink.com 1.10,2013-08-02 17:52:00,
2013-08-02 14:07:00,77.9,62.0,29.86,WNW,300,0.0,9.0,58,0.00,,,0.03,weatherlink.com 1.10,2013-08-02 18:07:00,
2013-08-02 14:22:00,78.4,63.0,29.87,SE,146,2.0,7.0,59,0.00,,,0.03,weatherlink.com 1.10,2013-08-02 18:22:00,
2013-08-02 14:37:00,78.2,61.0,29.87,NE,47,0.0,8.0,56,0.00,,,0.03,weatherlink.com 1.10,2013-08-02 18:37:00,
2013-08-02 14:52:00,78.2,61.0,29.88,North,5,8.0,8.0,56,0.00,,,0.03,weatherlink.com 1.10,2013-08-02 18:52:00,
2013-08-02 15:07:00,78.9,60.0,29.87,NNW,345,3.0,6.0,53,0.00,,,0.03,weatherlink.com 1.10,2013-08-02 19:07:00,
2013-08-02 15:22:00,78.7,62.0,29.87,WSW,249,0.0,10.0,56,0.00,,,0.03,weatherlink.com 1.10,2013-08-02 19:22:00,
2013-08-02 15:37:00,78.8,60.0,29.86,SW,234,2.0,12.0,53,0.00,,,0.03,weatherlink.com 1.10,2013-08-02 19:37:00,
2013-08-02 15:52:00,78.9,63.0,29.86,WSW,242,5.0,5.0,58,0.00,,,0.03,weatherlink.com 1.10,2013-08-02 19:52:00,
2013-08-02 16:07:00,78.9,61.0,29.85,WSW,238,2.0,5.0,54,0.00,,,0.03,weatherlink.com 1.10,2013-08-02 20:07:00,
2013-08-02 16:22:00,79.3,64.0,29.86,North,360,0.0,8.0,59,0.00,,,0.03,weatherlink.com 1.10,2013-08-02 20:22:00,
2013-08-02 16:37:00,79.4,61.0,29.86,SSW,196,1.0,9.0,54,0.00,,,0.03,weatherlink.com 1.10,2013-08-02 20:37:00,
2013-08-02 16:52:00,78.8,62.0,29.86,NE,48,0.0,7.0,57,0.00,,,0.03,weatherlink.com 1.10,2013-08-02 20:52:00,
2013-08-02 17:07:00,77.3,64.0,29.86,SW,227,0.0,4.0,64,0.00,,,0.03,weatherlink.com 1.10,2013-08-02 21:07:00,
2013-08-02 17:22:00,76.7,65.0,29.85,SW,229,0.0,4.0,67,0.00,,,0.03,weatherlink.com 1.10,2013-08-02 21:22:00,
2013-08-02 17:37:00,76.7,62.0,29.85,SSW,211,2.0,9.0,61,0.00,,,0.03,weatherlink.com 1.10,2013-08-02 21:37:00,
2013-08-02 17:52:00,76.5,64.0,29.85,SW,224,0.0,6.0,65,0.00,,,0.03,weatherlink.com 1.10,2013-08-02 21:52:00,
2013-08-02 18:07:00,76.0,65.0,29.85,West,277,2.0,5.0,68,0.00,,,0.03,weatherlink.com 1.10,2013-08-02 22:07:00,
2013-08-02 18:22:00,75.7,66.0,29.85,West,277,0.0,2.0,71,0.00,,,0.03,weatherlink.com 1.10,2013-08-02 22:22:00,
2013-08-02 18:37:00,75.7,64.0,29.85,West,277,1.0,2.0,68,0.00,,,0.03,weatherlink.com 1.10,2013-08-02 22:37:00,
2013-08-02 18:52:00,76.1,66.0,29.85,WNW,291,0.0,4.0,70,0.00,,,0.03,weatherlink.com 1.10,2013-08-02 22:52:00,
2013-08-02 19:07:00,76.0,68.0,29.85,WNW,291,0.0,2.0,75,0.00,,,0.03,weatherlink.com 1.10,2013-08-02 23:07:00,
2013-08-02 19:22:00,75.3,67.0,29.86,West,261,0.0,2.0,76,0.00,,,0.03,weatherlink.com 1.10,2013-08-02 23:22:00,
2013-08-02 19:37:00,73.8,67.0,29.86,SSW,207,1.0,3.0,79,0.00,,,0.03,weatherlink.com 1.10,2013-08-02 23:37:00,
2013-08-02 19:52:00,72.5,66.0,29.86,SSW,211,0.0,1.0,79,0.00,,,0.03,weatherlink.com 1.10,2013-08-02 23:52:00,
2013-08-02 20:07:00,71.5,65.0,29.86,SSW,211,0.0,2.0,81,0.00,,,0.03,weatherlink.com 1.10,2013-08-03 00:07:00,
2013-08-02 20:22:00,71.0,65.0,29.87,SW,233,0.0,2.0,81,0.00,,,0.03,weatherlink.com 1.10,2013-08-03 00:22:00,
2013-08-02 20:37:00,70.1,65.0,29.88,SW,234,0.0,2.0,84,0.00,,,0.03,weatherlink.com 1.10,2013-08-03 00:37:00,
2013-08-02 20:52:00,69.1,65.0,29.88,SW,233,0.0,1.0,85,0.00,,,0.03,weatherlink.com 1.10,2013-08-03 00:52:00,
2013-08-02 21:07:00,68.3,64.0,29.89,SW,234,0.0,1.0,86,0.00,,,0.03,weatherlink.com 1.10,2013-08-03 01:07:00,
2013-08-02 21:22:00,67.6,64.0,29.89,SW,234,0.0,0.0,88,0.00,,,0.03,weatherlink.com 1.10,2013-08-03 01:22:00,
2013-08-02 21:37:00,67.0,64.0,29.89,SW,234,0.0,2.0,89,0.00,,,0.03,weatherlink.com 1.10,2013-08-03 01:37:00,
2013-08-02 21:52:00,66.3,63.0,29.89,SW,234,0.0,0.0,89,0.00,,,0.03,weatherlink.com 1.10,2013-08-03 01:52:00,
2013-08-02 22:07:00,65.9,63.0,29.89,SW,233,0.0,0.0,89,0.00,,,0.03,weatherlink.com 1.10,2013-08-03 02:07:00,
2013-08-02 22:22:00,65.5,62.0,29.89,SW,234,0.0,0.0,89,0.00,,,0.03,weatherlink.com 1.10,2013-08-03 02:22:00,
2013-08-02 22:37:00,65.1,62.0,29.89,SW,234,0.0,0.0,90,0.00,,,0.03,weatherlink.com 1.10,2013-08-03 02:37:00,
2013-08-02 22:52:00,64.8,62.0,29.89,SW,234,0.0,0.0,91,0.00,,,0.03,weatherlink.com 1.10,2013-08-03 02:52:00,
2013-08-02 23:07:00,64.4,62.0,29.89,SW,233,0.0,0.0,92,0.00,,,0.03,weatherlink.com 1.10,2013-08-03 03:07:00,
2013-08-02 23:22:00,64.1,62.0,29.89,SW,233,0.0,1.0,93,0.00,,,0.03,weatherlink.com 1.10,2013-08-03 03:22:00,
2013-08-02 23:37:00,63.9,62.0,29.90,SW,233,0.0,1.0,94,0.00,,,0.03,weatherlink.com 1.10,2013-08-03 03:37:00,
2013-08-02 23:52:00,63.8,62.0,29.90,SW,233,0.0,2.0,94,0.00,,,0.03,weatherlink.com 1.10,2013-08-03 03:52:00,